Regional Weather Roundup
Issued by NWS Jackson, KY

Home | Current Version | Previous Version | Graphics & Text | Print | Product List | Glossary On
Versions: 1 2 3 4 5 6 7 8 9 10 11 12 13 14 15 16 17 18 19 20 21 22 23 24 25 26 27 28
000
ASUS43 KJKL 270410
RWRJKL

EAST KENTUCKY HOURLY WEATHER ROUNDUP
NATIONAL WEATHER SERVICE JACKSON KY
1100 PM EST SUN FEB 26 2017

NOTE: "FAIR" INDICATES FEW OR NO CLOUDS BELOW 12,000 FEET WITH
NO SIGNIFICANT WEATHER AND/OR OBSTRUCTIONS TO VISIBILITY.

* THESE REPORTS ARE NOT UNDER NWS QUALITY CONTROL AND MAY NOT
  REPORT WEATHER SUCH AS PRECIPITATION AND FOG.

KYZ079-080-083-085-087-088-110-112-115-119-120-270500
...EASTERN KENTUCKY...

CITY           SKY/WX    TMP DP  RH WIND       PRES   REMARKS
JACKSON          N/A     42  15  33 S3        30.20S
LONDON           N/A     36  23  59 CALM      30.20S
SOMERSET*        N/A     37  21  52 CALM      30.21F
MONTICELLO*    MOCLDY    41  25  53 N8        30.21S
WILLIAMSBURG*    N/A     41  18  38 SE6       30.20F
MIDDLESBORO*   MOCLDY    34  27  76 CALM      30.24S
HARLAN APT*      N/A     34  27  75 CALM      30.23R
PIKE CO APT*   CLOUDY    39  17  41 SE6       30.21F
BIG SANDY APT* MOCLDY    41  17  38 S5        30.21F
MOREHEAD APT*  CLOUDY    41  18  38 CALM      30.21R
ASHLAND*         N/A     34  27  75 CALM      30.19F
$$

KYZ035-036-041-042-044-050-067-078-099-270500
...CENTRAL KENTUCKY...

CITY           SKY/WX    TMP DP  RH WIND       PRES   REMARKS
FLEMING/MASON* MOCLDY    39  19  43 S5        30.20R
DANVILLE*      CLOUDY    41  27  56 S5        30.19S
LEXINGTON      CLOUDY    43  18  36 SE3       30.18S
FRANKFORT      CLOUDY    42  21  43 SE5       30.17S
LOUISVILLE     CLOUDY    45  17  32 SE5       30.17S
LEBANON*         N/A     45  23  42 SE8       30.18S
GLASGOW*       CLOUDY    42  29  59 E7        30.16F
BOWLING GREEN  CLOUDY    46  21  37 CALM      30.16F
$$

KYZ091>093-OHZ055-061-077-WVZ005-015-034-035-042-270500
...SOUTHERN OHIO/WEST VIRGINIA...

CITY           SKY/WX    TMP DP  RH WIND       PRES   REMARKS
COVINGTON      CLOUDY    40  19  43 S6        30.16R
COLUMBUS       CLOUDY    40  19  43 SE6       30.17F
DAYTON           N/A     38  17  42 S8        30.16S WCI  32
WILMINGTON     MOCLDY    35  23  61 S6        30.17S WCI  30
HUNTINGTON       N/A     35  18  49 E5        30.20F WCI  31
CHARLESTON       N/A     32  19  58 CALM      30.22F
PINEVILLE*       N/A     30  22  71 MISG      30.28F
BECKLEY        CLOUDY    36  11  35 SE6       30.21S WCI  31
BLUEFIELD        N/A     36   7  29 S3        30.22S
LOGAN CO APT*    N/A     39  14  35 CALM      30.20F
$$

VAZ002-007-008-TNZ017-027-036-066-071-270500
...SOUTHWEST VIRGINIA/EAST TENNESSEE...

CITY           SKY/WX    TMP DP  RH WIND       PRES   REMARKS
WISE*            N/A     37  14  38 S3        30.22S
JONESVILLE*      N/A     32  27  80 CALM      30.26R
ABINGDON*        N/A     34  20  56 CALM      30.23S
BRISTOL          N/A     32  22  66 N3        30.23F
MORRISTOWN*    PTCLDY    39  23  52 NE3       30.22R
SEVIERVILLE*   CLEAR     36  25  64 CALM      30.22S
KNOXVILLE      MOCLDY    43  23  45 CALM      30.22R
LAFOLLETTE*    CLOUDY    37  27  65 CALM      30.24F
OAK RIDGE      CLOUDY    41  25  53 CALM      30.23
CROSSVILLE     CLOUDY    45  19  35 S3        30.18F
NASHVILLE      MOCLDY    48  25  40 E5        30.14F
$$

...KEY TO REMARKS...
VSB - VISIBILITY IN MILES
WCI - WIND CHILL INDEX
HX  - HEAT INDEX

$$




USA.gov is the U.S. government's official web portal to all federal, state and local government web resources and services.